Theta_e
305 302 300 303 304 303 302 301 300 304 306 304 306 306 308 313 316 313 318 323 326 329 334 338 341 342 342 340 340 343 343 343 341 338 336 335 332 332 332 332 331 330 329 324
303 300 304 304 303 302 301 300 300 304 305 305 306 306 309 318 317 317 320 323 325 329 333 336 340 342 342 341 341 342 343 342 342 340 338 336 333 333 333 332 331 327 323 319
301 302 304 304 303 301 302 300 300 300 304 306 303 304 306 314 323 322 322 323 325 329 331 333 335 337 339 341 341 341 342 341 341 339 336 334 333 332 331 329 325 322 319 322
303 305 303 302 302 302 298 303 303 302 301 298 303 297 305 308 316 322 323 324 325 329 332 333 333 332 334 335 339 341 340 340 339 339 337 335 334 331 331 328 317 319 322 321
301 302 301 301 303 304 301 304 303 302 301 300 300 299 304 311 309 313 323 326 327 330 331 331 332 332 331 335 339 340 340 340 339 339 339 336 333 326 317 317 319 318 319 317
304 307 305 305 305 305 306 303 302 301 301 296 301 299 301 305 310 315 323 325 327 328 330 331 331 330 330 335 336 336 336 334 336 337 336 333 328 322 319 317 316 315 315 315
300 302 306 306 303 305 304 301 296 294 294 294 299 298 302 309 310 316 317 322 327 328 329 327 326 327 330 332 333 331 330 327 328 328 326 325 323 322 320 316 314 313 312 312
295 293 301 304 303 301 302 303 296 290 292 295 298 296 303 311 316 323 324 324 327 327 329 327 327 328 331 331 330 327 325 323 323 323 320 320 320 316 315 315 313 311 312 313
296 295 303 303 305 305 301 299 304 298 295 295 299 302 307 313 318 322 322 324 323 326 327 329 326 327 331 328 325 325 324 321 320 319 318 318 317 316 314 315 314 313 314 313
301 295 302 304 306 304 304 305 298 299 291 290 295 297 300 308 311 316 322 323 324 326 327 328 325 326 329 327 324 323 322 320 318 317 317 315 316 316 315 314 314 314 316 314
302 300 298 302 301 300 300 300 300 301 299 293 292 296 309 311 313 314 317 324 326 324 326 323 322 328 327 325 322 320 319 317 316 316 315 315 314 314 315 315 315 315 315 314
302 301 296 298 303 303 304 302 304 296 295 297 296 297 310 311 312 313 317 324 327 328 324 323 326 326 324 323 321 319 319 317 316 316 315 314 315 315 315 316 316 316 314 314
303 299 295 297 300 302 300 301 302 301 302 297 294 297 309 314 317 319 320 324 326 327 328 328 326 324 323 322 320 319 318 318 317 315 315 315 315 315 316 316 316 316 315 315
307 300 298 294 297 301 299 301 302 302 297 298 298 300 306 309 312 315 321 324 325 325 326 327 325 323 322 321 320 318 318 317 316 315 315 315 316 317 317 316 315 315 315 314
304 298 299 299 300 300 300 300 300 300 301 298 302 302 306 311 313 314 320 324 324 323 324 325 324 322 322 321 319 317 318 316 315 314 315 315 315 317 316 314 315 315 314 313
301 297 297 296 299 299 297 299 300 301 302 302 303 303 310 314 313 314 318 321 322 323 324 325 325 322 322 320 316 317 316 315 315 315 314 314 314 314 315 314 315 313 313 312
297 297 296 292 296 297 293 298 299 300 303 304 302 308 312 311 314 316 319 321 322 324 324 324 324 323 323 320 319 317 316 315 314 314 313 313 313 313 314 314 312 312 312 312
295 297 297 292 295 286 298 306 303 302 305 308 308 309 311 313 317 320 320 321 322 324 324 325 325 325 324 320 317 318 316 314 313 313 312 311 313 311 311 311 311 312 311 311
298 295 292 290 291 294 297 300 300 301 302 309 309 310 313 313 318 319 323 323 324 326 326 327 328 326 320 318 318 317 315 314 313 312 311 312 311 310 311 310 311 311 310 311
297 298 293 293 288 286 299 304 306 305 299 310 310 310 313 316 309 313 324 324 324 326 326 326 326 322 320 319 318 316 314 313 312 311 312 311 310 310 311 311 311 311 309 308
292 293 290 290 290 294 302 306 307 294 299 309 311 312 315 315 319 321 323 324 326 325 325 325 320 320 320 317 316 315 313 312 312 312 311 311 311 312 312 311 311 309 308 308
293 292 291 293 290 288 307 304 298 306 311 311 312 314 313 317 321 321 321 322 322 320 318 320 320 318 316 316 316 313 312 313 312 311 310 311 312 311 308 308 309 308 308 307
292 298 294 297 296 306 309 308 309 310 309 312 314 316 317 317 319 319 319 319 320 319 319 319 317 314 313 315 315 312 311 311 310 311 311 311 310 309 308 306 307 305 307 305
297 300 297 298 300 303 305 306 307 311 311 313 316 317 319 318 320 318 317 318 319 318 316 316 314 312 310 312 312 312 311 311 312 311 310 312 310 308 309 306 305 305 305 304
296 298 295 296 299 299 301 305 308 308 308 307 312 317 318 320 319 317 316 316 316 315 314 314 313 311 308 308 309 311 311 312 310 310 310 311 310 309 306 306 306 306 308 303
295 293 291 290 298 299 302 306 307 304 305 307 311 316 320 320 318 317 316 314 313 313 313 310 309 308 308 309 309 311 312 312 311 309 309 309 309 308 306 305 306 296 294 293
Wind_Speed
3 6 9 8 4 1 1 2 6 7 6 6 6 13 15 10 8 11 15 18 14 16 7 7 6 5 6 6 8 11 12 13 11 9 8 6 6 7 6 5 6 5 4 4
4 9 7 3 6 4 3 4 8 11 4 5 9 15 11 5 4 4 10 13 13 10 9 8 7 6 5 7 8 9 11 13 9 7 5 4 8 5 5 5 5 5 5 3
7 2 4 8 6 6 6 6 8 9 8 5 6 8 5 1 3 1 6 10 10 14 12 9 7 6 5 7 9 9 9 10 9 10 9 9 8 6 5 4 4 3 1 3
6 3 6 7 7 4 8 6 9 7 4 5 2 5 3 5 10 6 7 9 10 11 10 11 10 8 8 7 8 10 10 10 9 11 10 12 6 7 3 3 3 3 4 4
5 5 6 8 14 9 7 5 5 5 5 3 4 6 2 2 6 6 6 8 8 9 11 12 11 10 9 9 10 11 11 10 8 8 8 7 7 7 6 5 6 5 5 5
6 1 3 3 4 9 2 3 1 1 4 6 4 5 3 4 4 4 4 4 7 9 11 11 10 9 9 9 10 10 11 8 8 8 8 8 11 10 7 6 4 3 3 2
3 11 6 4 8 4 4 3 3 6 7 6 2 5 7 9 7 8 9 7 8 10 12 13 13 11 11 10 10 10 10 10 9 10 10 10 10 9 8 7 4 4 3 2
7 5 11 8 16 7 6 6 5 7 7 5 3 5 3 5 6 8 8 9 9 11 12 15 15 13 13 12 10 10 10 11 11 10 11 9 9 6 6 5 4 3 2 2
5 5 2 4 4 11 6 7 2 2 2 4 4 4 10 9 12 9 5 6 11 13 15 16 15 13 12 11 10 10 10 10 11 11 9 8 8 7 6 6 5 4 3 2
5 7 7 3 5 3 5 8 4 2 5 8 5 4 6 7 11 6 9 10 11 12 14 15 14 13 11 11 10 10 10 11 11 10 8 7 7 7 6 6 5 4 2 0
4 5 4 1 7 11 6 5 1 2 3 6 8 6 7 11 11 12 9 9 12 14 14 13 13 14 12 11 12 11 11 11 10 9 7 7 6 6 6 4 3 2 1 2
3 2 5 9 1 5 8 12 8 6 5 2 3 7 5 9 11 10 14 8 11 15 14 14 14 14 14 13 12 12 10 10 8 8 7 6 6 6 4 2 1 1 4 5
4 2 3 5 5 3 2 2 2 0 2 11 11 6 2 8 11 12 13 7 12 15 16 16 15 14 14 14 13 11 10 9 8 8 7 7 5 4 1 1 2 4 6 7
1 3 5 5 1 1 5 5 3 5 5 9 11 16 11 13 14 16 11 7 11 14 16 16 15 15 14 13 12 11 10 9 9 8 7 5 4 2 1 2 4 6 6 7
4 4 4 9 10 10 12 14 12 11 12 9 15 16 15 14 12 13 11 9 13 17 19 18 17 14 14 13 12 11 10 9 9 8 5 4 3 2 3 5 6 7 7 6
4 3 4 6 8 11 16 17 15 16 17 16 20 21 20 18 10 12 10 12 16 19 20 19 17 16 15 13 11 11 10 10 8 5 4 3 3 3 5 6 6 6 7 6
4 3 3 8 4 12 20 16 21 19 18 17 16 15 17 13 13 15 13 15 19 16 17 19 19 18 16 15 13 13 11 9 7 5 4 3 3 5 6 6 5 6 7 7
7 5 5 6 6 16 7 4 5 9 14 15 14 14 16 15 12 14 11 14 16 16 19 20 18 17 16 13 12 12 11 9 7 6 4 4 4 4 5 5 6 7 6 7
17 11 6 7 11 19 22 17 11 8 20 9 10 14 14 8 4 14 15 15 14 15 17 19 17 17 16 16 15 14 11 9 7 6 5 5 5 4 5 6 6 6 7 7
11 14 9 5 7 9 4 3 6 7 13 8 16 14 12 5 6 11 5 8 10 12 14 16 17 16 17 16 15 14 11 9 7 6 5 5 4 4 6 6 7 5 6 8
5 8 16 13 10 12 10 16 10 8 5 18 16 17 12 7 7 10 4 5 10 14 17 15 15 15 14 15 15 14 12 10 7 6 5 5 4 3 5 5 5 6 7 7
8 9 7 10 10 15 9 8 20 10 18 18 24 19 17 16 14 8 2 8 14 16 17 18 16 13 13 15 14 12 10 8 7 6 5 4 1 3 3 5 5 5 6 7
6 5 4 9 5 3 12 11 9 15 17 20 19 22 18 16 13 9 6 10 13 16 15 14 16 16 15 14 12 12 10 9 7 5 4 3 0 2 4 5 6 5 5 6
4 3 6 8 8 17 18 21 21 20 16 20 20 20 20 18 12 10 8 9 10 12 15 17 19 17 15 12 11 12 10 8 7 5 4 1 1 4 4 4 4 5 5 5
5 7 8 20 18 23 22 14 14 19 24 25 26 23 23 18 11 10 10 12 12 12 12 15 17 16 15 11 12 12 9 7 6 5 3 1 2 3 4 4 5 5 4 4
11 13 12 14 14 18 17 19 23 28 27 28 26 25 20 12 9 13 12 13 14 15 14 16 17 17 15 13 13 11 8 6 5 4 2 2 3 4 4 5 5 8 10 3
Wind_Direction
165 205 207 190 193 164 219 260 281 275 270 278 268 277 283 315 292 239 230 221 215 221 173 160 137 164 171 190 180 177 172 163 162 156 154 153 143 138 133 123 114 110 119 105
165 230 211 184 168 179 212 271 278 290 238 266 302 290 288 269 272 253 241 230 219 195 181 151 147 154 172 164 168 167 170 165 171 157 143 139 140 142 133 118 104 91 101 114
215 176 170 189 180 222 243 257 266 270 314 259 293 261 245 213 297 303 249 244 221 211 191 165 156 145 138 145 150 156 158 155 146 136 126 120 112 125 139 130 114 78 102 116
232 215 204 193 240 205 276 224 263 266 282 288 11 289 264 329 303 208 210 225 224 210 186 168 155 149 151 140 136 129 130 127 140 149 143 153 149 148 110 120 100 96 71 73
195 191 190 212 241 198 253 183 271 281 238 271 195 246 269 297 297 307 210 206 218 203 185 169 155 149 132 142 130 122 127 130 144 139 144 143 123 110 123 128 112 89 91 77
241 232 207 237 176 188 128 211 172 139 190 233 224 252 250 300 299 285 58 201 203 186 173 163 143 132 128 130 129 131 124 128 123 123 124 124 131 131 132 130 143 144 130 116
218 237 228 193 255 171 184 264 258 217 211 257 53 236 265 267 264 261 310 285 206 188 172 162 157 154 148 145 141 135 138 123 118 115 113 118 124 126 136 153 149 155 159 168
214 239 212 192 224 228 195 210 234 248 248 271 158 235 236 264 271 284 302 273 197 187 181 175 170 164 162 155 148 135 135 132 123 119 116 117 125 131 131 143 152 145 145 159
183 252 253 217 203 194 157 215 330 175 62 261 275 261 268 250 269 253 256 193 191 195 187 179 172 174 167 150 148 145 140 134 126 122 123 130 133 130 137 149 163 152 162 165
205 266 247 160 162 102 234 142 188 180 235 247 217 257 260 279 281 258 236 225 200 200 186 181 174 181 169 158 148 149 152 143 133 131 134 132 133 138 155 177 167 132 128 69
167 233 208 220 212 228 178 200 128 271 267 268 264 253 221 262 289 287 286 233 202 191 187 177 182 179 164 156 156 153 153 142 134 132 128 136 152 161 180 171 120 75 337 303
28 211 244 255 261 322 250 247 209 244 224 227 290 257 238 258 281 282 285 225 202 187 180 181 174 167 164 162 161 162 147 139 139 139 150 165 173 179 177 114 108 270 286 280
349 227 261 168 137 139 214 178 216 95 298 250 252 256 259 277 276 266 268 208 189 188 178 177 172 171 171 168 164 160 149 148 152 159 168 178 176 171 139 342 338 289 282 284
187 265 258 261 340 29 254 220 250 236 249 259 240 273 260 272 272 280 252 231 196 187 181 176 176 175 170 166 165 156 157 162 161 173 184 174 162 175 221 305 285 281 286 288
40 281 295 272 267 258 255 257 256 234 246 255 278 260 268 266 266 277 274 217 193 189 188 185 179 172 170 162 159 163 164 169 169 178 177 168 182 214 244 265 278 285 285 287
357 292 335 284 287 270 265 257 259 249 253 258 260 268 263 262 267 264 243 218 217 204 194 186 176 170 169 163 162 169 168 170 169 169 182 186 235 254 257 270 276 278 290 290
293 242 266 254 309 302 273 255 236 243 241 242 256 255 277 251 243 254 247 223 227 211 197 186 176 177 169 172 168 169 166 154 161 167 193 222 221 260 275 269 269 287 294 296
223 237 251 269 290 252 267 32 322 249 248 244 256 268 269 258 271 273 256 239 231 206 187 185 179 171 168 159 154 150 155 157 162 187 186 215 244 257 258 267 280 289 290 286
216 225 247 241 224 279 295 281 259 242 267 276 266 274 286 272 282 277 251 231 242 206 185 175 174 166 153 155 157 154 151 154 176 184 184 215 217 241 271 273 281 293 293 297
201 216 236 211 237 250 56 349 164 315 284 340 268 268 292 209 255 265 358 215 196 182 168 176 164 157 152 156 150 145 149 164 182 178 203 192 217 247 274 284 291 294 293 291
154 197 221 231 251 264 247 272 282 267 351 345 347 340 325 257 299 334 356 151 161 157 162 149 154 158 152 142 142 144 155 169 166 157 177 197 209 269 277 293 286 293 297 304
194 184 186 212 237 258 3 258 247 353 320 329 323 319 317 305 292 302 242 160 152 150 149 155 144 140 139 140 143 145 153 145 149 157 179 192 183 275 292 292 295 294 305 306
245 258 245 224 233 332 294 313 307 309 306 316 325 314 312 302 280 254 211 182 165 153 150 142 131 133 133 139 141 146 139 144 147 170 165 140 53 303 291 296 303 304 307 313
268 349 255 297 271 266 306 312 309 320 323 318 313 316 315 296 277 225 194 173 161 149 142 136 134 134 131 135 139 131 137 148 161 161 138 132 318 311 298 297 291 300 310 313
259 320 267 269 279 287 280 291 325 319 319 318 309 308 309 293 259 207 180 164 151 138 144 140 137 135 132 135 131 124 141 156 150 138 131 120 321 310 315 301 301 300 287 306
223 236 236 259 278 268 285 299 312 304 302 298 297 300 300 276 222 187 170 153 141 143 138 125 121 126 137 135 124 131 147 155 147 153 130 29 334 317 309 311 308 220 254 250